Location: Clyde
(45.1830°S, 169.3170°E)
Time: 21:20:22
(UTC+13:00)

Cosmos 1933 Rocket - Pass Details

Date: 24 January 2019
Orbit: 607 x 630 km, 82.5° (Epoch: 18 October)

Event Time Altitude Azimuth Distance (km) Brightness Sun altitude
Rises 22:40:35 0° 193° (SSW) 2,928 8.0 -11.9°
Reaches altitude 10° 22:42:51 10° 196° (SSW) 2,010 7.2 -12.2°
Maximum altitude 22:47:14 60° 275° (W) 714 4.1 -12.8°
Drops below altitude 10° 22:51:32 10° 354° (N) 1,971 5.8 -13.3°
Enters shadow 22:51:50 - 355° (N) 2,090 5.9 -13.4°
